STARLINK-34659, 64913

Orbit data source: Space-Track

STARLINK-34659, 64913 is a payload satellite owned by SpaceX/Seattle (US) in LEO that was launched on Sat, 26 Jul 2025 UTC via an FALCON 9 launch vehicle from the Air Force Eastern Test Range (AFETR). Payload-class satellites include a variety of spacecraft equipped with specific instruments for various scientific and technological missions. These include communications satellites like Starlink; space stations such as the ISS; scientific satellites like the Hubble; Earth observation satellites from companies like Planet Labs, Umbra, and HawkEye 360; GPS; miniature CubeSats for education and research; and military/defense satellites.

Loading next visibility...
Identifier
64913, 2025-157K
Orbit
LEO
Country
Flag of USUS
Related business
Manufacturer
SpaceX/Seattle
Mission
Operational Commercial Communications
Bus & Motor
STARLINK V2MO, Unknown motor
Mass
575 kg wet, ~530 kg dry
Launch date (UTC)
2025-07-26 (4 months ago)
Launch vehicle
FALCON 9
Launch site
Air Force Eastern Test Range (AFETR)
Object type
Payload
Rocket body
Debris
Shape & HBR
Box + 2 Pan, 17.7 m
Radar Cross Section
36.964 m², Large (>1 m²)

Expand to show TLE details & history
Last TLE update: 11 hours ago

TLE from 11 hours ago
0 STARLINK-34659
1 64913U 25157K   25340.93657621  .00093726  00000-0  23229-2 0  9993
2 64913  53.1588  60.7080 0001759  79.3022 280.8181 15.39640116 21817
Epoch: 2025-12-06T22:28Z
TLE epoch observation values (Epoch: 2025-12-06T22:28:40.184Z)
Latitude
-0.00001°
Longitude
7.5834°
Altitude
447.851 km
Speed
7.645 km/s
True Right ascension
04h 02m 49s
True Declination
0° 00' 00"
Sunlit
Object was in full shadow at epoch
Visualization orbit readout
Latitude
Unknown
Longitude
Unknown
Altitude
Unknown
Speed
Unknown
Apparent Right ascension
Unknown
Apparent Declination
Unknown
Sunlit
N/A
Visualization observer readout
Local Sidereal Time
07:41:14
Azimuth
Unknown
Elevation
Unknown
Doppler factor
Unknown
Orbital elements
Apogee altitude
448.631 km
Perigee altitude
446.23 km
Semi-major axis
6,825.567 km
Eccentricity
0.00018
Inclination
53.1588°
RAAN
60.708°
Arg. of periapsis
79.3022°
True anomaly
280.7983°
Mean anomaly
280.8181°
Eccentric anomaly
280.8082°
Mean motion
3.84889 °/min
Orbital period
93.53 mins
BSTAR
0.0023229
Loading maneuver chart data...
Computing Atmospheric mass density...
Loading historical data...
Loading historical data...
Loading historical data...
Loading historical data...
Loading historical data...
Loading historical data...
Loading historical data...

Documentation

Showing up to 5 results
|